IW5EFR Vecchia di Pontedera IT current weather conditions

sailwx.info

Wind from 279 at 10 knots gusting 14

Air temperature 34.4° C
Dewpoint 17.2° C

Last reported at 2017-Aug-17 15:03 UTC.
Time now 2017-Aug-17 15:16 UTC

Location: N 43°37' E 010°38'.
View on Google Maps.

See reports from other nearby stations

  
Tides and Currents Weather Stations Pressure Air Temp Water Temp Dewpoint Dewpoint Depression Visibility Wind Speed Wind Dir Waves Ship Positions
date/time (UTC)wind fromknots sea level pressurealtimeterstation pressurevisibilityair tempwater tempwave heightnotes
2017-Aug-17 15:03 279 10 gusting 14 34.4
2017-Aug-17 14:58 272 4 gusting 14 34.4
2017-Aug-17 14:53 339 14 gusting 13 34.4
2017-Aug-17 14:48 318 7 gusting 13 34.4
2017-Aug-17 14:43 282 2 gusting 12 34.4
2017-Aug-17 14:38 316 5 gusting 12 34.4
2017-Aug-17 14:33 257 6 gusting 12 34.4
2017-Aug-17 14:28 285 3 gusting 12 35.0
2017-Aug-17 14:23 325 4 gusting 11 35.0
2017-Aug-17 14:18 331 6 gusting 11 34.4
2017-Aug-17 14:13 287 5 gusting 12 34.4
2017-Aug-17 14:08 265 5 gusting 12 35.0
2017-Aug-17 14:03 289 5 gusting 12 35.0
2017-Aug-17 13:58 330 5 gusting 12 35.0
2017-Aug-17 13:53 306 12 gusting 12 35.0
2017-Aug-17 13:48 286 6 gusting 12 35.0
2017-Aug-17 13:43 311 5 gusting 10 35.0
2017-Aug-17 13:38 292 5 gusting 10 35.0
2017-Aug-17 13:33 342 8 gusting 9 35.6
2017-Aug-17 13:28 296 0 gusting 9 35.6
2017-Aug-17 13:23 309 1 gusting 6 35.6
2017-Aug-17 13:18 338 1 gusting 6 35.6
2017-Aug-17 13:13 355 5 gusting 6 35.6
2017-Aug-17 13:08 355 35.6
2017-Aug-17 13:03 355 2 gusting 6 35.6
2017-Aug-17 12:58 355 1 gusting 6 35.6
2017-Aug-17 12:48 010 4 gusting 8 35.6
2017-Aug-17 12:43 011 2 gusting 2 35.6
2017-Aug-17 12:38 036 1 gusting 2 35.6
2017-Aug-17 12:33 062 0 gusting 6 35.0
2017-Aug-17 12:28 063 0 gusting 6 35.0
2017-Aug-17 12:23 063 1 gusting 6 35.0
2017-Aug-17 12:18 355 1 gusting 6 35.0
2017-Aug-17 12:13 355 1 gusting 7 34.4
2017-Aug-17 12:08 355 2 gusting 7 35.0
2017-Aug-17 12:03 355 3 gusting 6 35.0
2017-Aug-17 11:58 355 2 gusting 6 35.0
2017-Aug-17 11:53 355 2 gusting 6 35.0
2017-Aug-17 11:48 355 3 gusting 6 34.4
2017-Aug-17 11:43 355 4 gusting 6 34.4
2017-Aug-17 11:38 355 2 gusting 6 34.4
2017-Aug-17 11:33 355 3 gusting 7 34.4
2017-Aug-17 11:28 355 0 gusting 7 33.9
2017-Aug-17 11:23 355 4 gusting 10 33.9
2017-Aug-17 11:18 355 1 gusting 10 33.9
2017-Aug-17 11:13 355 4 gusting 6 33.9
2017-Aug-17 11:08 355 6 gusting 6 33.9
2017-Aug-17 11:03 022 0 gusting 8 33.9
2017-Aug-17 10:59 018 0 gusting 8 33.3
2017-Aug-17 10:53 020 1 gusting 5 33.3
2017-Aug-17 10:48 020 1 gusting 5 32.8
2017-Aug-17 10:43 036 2 gusting 6 32.8
2017-Aug-17 10:38 036 3 gusting 6 32.8
2017-Aug-17 10:33 036 2 gusting 6 32.8
2017-Aug-17 10:28 036 3 gusting 6 32.8
2017-Aug-17 10:23 038 0 gusting 6 32.2
2017-Aug-17 10:18 038 2 gusting 6 32.2
2017-Aug-17 10:13 047 3 gusting 6 31.7
2017-Aug-17 10:08 047 2 gusting 6 31.7
2017-Aug-17 10:04 051 2 gusting 7 31.7
2017-Aug-17 09:58 051 2 gusting 7 31.7
2017-Aug-17 09:53 051 31.1
2017-Aug-17 09:48 053 1 gusting 6 31.1
2017-Aug-17 09:43 055 6 gusting 6 30.6
2017-Aug-17 09:38 072 3 gusting 6 30.6
2017-Aug-17 09:33 114 3 gusting 5 30.6
2017-Aug-17 09:28 128 30.0
2017-Aug-17 09:23 141 1 gusting 5 30.0
2017-Aug-17 09:18 134 29.4
2017-Aug-17 09:13 146 4 gusting 4 29.4
2017-Aug-17 09:08 148 2 gusting 4 29.4
2017-Aug-17 09:03 153 4 gusting 4 28.9
2017-Aug-17 08:58 154 1 gusting 4 28.9
2017-Aug-17 08:53 154 28.3
2017-Aug-17 08:48 154 2 gusting 5 27.8
2017-Aug-17 08:43 154 2 gusting 5 27.8
2017-Aug-17 08:38 157 2 gusting 5 27.8
2017-Aug-17 08:33 157 27.8
2017-Aug-17 08:28 157 0 gusting 4 27.8
2017-Aug-17 08:23 157 0 gusting 3 27.2
2017-Aug-17 08:18 157 2 gusting 3 27.2
2017-Aug-17 08:13 157 0 gusting 2 27.2
2017-Aug-17 08:08 157 26.7
2017-Aug-17 08:03 157 2 gusting 2 26.7
2017-Aug-17 07:58 157 26.1
2017-Aug-17 07:53 157 26.1
2017-Aug-17 07:48 157 26.1
2017-Aug-17 07:43 157 25.6
2017-Aug-17 07:38 157 25.6
2017-Aug-17 07:33 157 25.0
2017-Aug-17 07:28 157 24.4
2017-Aug-17 07:23 157 2 gusting 2 23.9
2017-Aug-17 07:18 157 23.9
2017-Aug-17 07:13 157 0 gusting 3 23.3
2017-Aug-17 07:08 157 23.3
2017-Aug-17 07:03 157 22.8
2017-Aug-17 06:58 157 0 gusting 4 22.2
2017-Aug-17 06:53 157 1 21.7
2017-Aug-17 06:48 157 1 21.7
2017-Aug-17 06:43 157 21.1
2017-Aug-17 06:38 157 21.1
2017-Aug-17 06:33 157 21.1
2017-Aug-17 06:28 157 20.6
2017-Aug-17 06:19 157 0 gusting 4 20.0
2017-Aug-17 06:13 157 0 gusting 5 19.4
2017-Aug-17 06:08 157 2 gusting 5 19.4
2017-Aug-17 06:03 157 1 gusting 6 18.9
2017-Aug-17 05:58 157 2 gusting 6 18.9
2017-Aug-17 05:53 157 2 gusting 6 18.3
2017-Aug-17 05:48 157 4 gusting 6 18.3
2017-Aug-17 05:43 157 3 gusting 4 18.3
2017-Aug-17 05:38 157 6 gusting 4 17.8
2017-Aug-17 05:33 157 2 gusting 3 17.8
2017-Aug-17 05:28 157 3 gusting 3 17.8
2017-Aug-17 05:23 157 1 gusting 4 17.2
2017-Aug-17 05:18 157 0 gusting 4 17.2
2017-Aug-17 05:13 157 3 gusting 4 17.2
2017-Aug-17 05:08 157 2 gusting 4 17.2
2017-Aug-17 05:03 157 2 gusting 2 17.2
2017-Aug-17 04:58 157 2 gusting 2 17.2
2017-Aug-17 04:53 157 0 gusting 3 17.2
2017-Aug-17 04:48 157 2 gusting 3 17.2
2017-Aug-17 04:43 157 0 gusting 3 17.2
2017-Aug-17 04:38 157 2 gusting 3 17.2
2017-Aug-17 04:33 157 17.2
2017-Aug-17 04:28 157 1 gusting 4 17.2
2017-Aug-17 04:23 157 0 gusting 4 17.2
2017-Aug-17 04:18 157 2 gusting 4 17.2
2017-Aug-17 04:13 157 1 gusting 5 17.2
2017-Aug-17 04:08 157 3 gusting 5 17.2
2017-Aug-17 04:03 157 1 gusting 5 17.2
2017-Aug-17 03:58 157 1 gusting 5 17.2
2017-Aug-17 03:53 157 3 gusting 5 17.2
2017-Aug-17 03:48 157 3 gusting 5 17.2
2017-Aug-17 03:43 157 3 gusting 6 17.2
2017-Aug-17 03:38 157 5 gusting 6 17.2
2017-Aug-17 03:33 157 2 gusting 6 17.2
2017-Aug-17 03:28 157 3 gusting 6 17.2
2017-Aug-17 03:23 160 2 gusting 6 17.2
2017-Aug-17 03:18 164 4 gusting 6 17.2
2017-Aug-17 03:13 164 3 gusting 6 17.2
2017-Aug-17 03:08 164 2 gusting 6 17.2
2017-Aug-17 03:03 165 3 gusting 5 17.2
2017-Aug-17 02:58 165 4 gusting 5 17.2
2017-Aug-17 02:53 165 5 gusting 6 17.2
2017-Aug-17 02:48 165 3 gusting 6 17.2
2017-Aug-17 02:43 165 2 gusting 5 17.2
2017-Aug-17 02:38 165 3 gusting 5 17.8
2017-Aug-17 02:33 165 4 gusting 6 17.8
2017-Aug-17 02:28 165 4 gusting 6 17.8
2017-Aug-17 02:23 165 1 gusting 6 17.8
2017-Aug-17 02:18 165 3 gusting 6 17.8
2017-Aug-17 02:13 171 2 gusting 5 17.8
2017-Aug-17 02:08 188 5 gusting 5 17.8
2017-Aug-17 02:03 197 4 gusting 5 17.8
2017-Aug-17 01:58 200 3 gusting 5 17.8
2017-Aug-17 01:53 203 4 gusting 5 17.8
2017-Aug-17 01:48 205 4 gusting 5 17.8
2017-Aug-17 01:43 207 3 gusting 4 17.8
2017-Aug-17 01:38 208 4 gusting 4 17.8
2017-Aug-17 01:33 208 3 18.3
2017-Aug-17 01:28 208 3 18.3
2017-Aug-17 01:23 208 18.3
2017-Aug-17 01:18 208 18.3
2017-Aug-17 01:13 208 18.3
2017-Aug-17 01:08 208 18.9
2017-Aug-17 01:03 208 18.9
2017-Aug-17 00:58 208 18.9
2017-Aug-17 00:53 208 18.9
2017-Aug-17 00:48 208 18.9
2017-Aug-17 00:43 208 18.9
2017-Aug-17 00:38 208 0 gusting 3 18.9
2017-Aug-17 00:33 208 2 gusting 5 18.9
2017-Aug-17 00:28 208 18.9
2017-Aug-17 00:23 208 18.9
2017-Aug-17 00:18 208 4 gusting 4 18.9
2017-Aug-17 00:13 209 0 gusting 2 18.9
2017-Aug-17 00:08 209 2 gusting 2 18.9
2017-Aug-17 00:03 209 2 gusting 3 19.4
2017-Aug-16 23:58 209 1 gusting 3 19.4
2017-Aug-16 23:53 209 1 gusting 4 19.4
2017-Aug-16 23:48 209 1 gusting 4 19.4
2017-Aug-16 23:43 209 1 gusting 3 19.4
2017-Aug-16 23:38 209 1 gusting 3 20.0
2017-Aug-16 23:33 209 3 gusting 3 20.0
2017-Aug-16 23:28 209 20.0
2017-Aug-16 23:23 209 20.0
2017-Aug-16 23:18 209 2 gusting 4 20.0
2017-Aug-16 23:13 209 0 gusting 4 20.0
2017-Aug-16 23:08 209 2 gusting 4 20.0
2017-Aug-16 23:03 209 3 gusting 4 20.0
2017-Aug-16 22:58 212 2 gusting 4 20.0
2017-Aug-16 22:53 212 3 gusting 3 20.6
2017-Aug-16 22:48 212 2 gusting 3 20.6
2017-Aug-16 22:43 214 2 gusting 4 20.6
2017-Aug-16 22:38 215 0 gusting 4 20.6
2017-Aug-16 22:33 215 20.6
2017-Aug-16 22:28 215 1 gusting 5 21.1
2017-Aug-16 22:23 217 2 21.1
2017-Aug-16 22:18 264 3 21.1
2017-Aug-16 22:13 264 21.1
2017-Aug-16 22:08 264 21.1
2017-Aug-16 22:03 264 21.1
2017-Aug-16 21:58 265 21.1
2017-Aug-16 21:53 264 21.1
2017-Aug-16 21:48 264 21.7
2017-Aug-16 21:43 264 21.7
2017-Aug-16 21:38 265 21.7
2017-Aug-16 21:33 265 21.7
2017-Aug-16 21:28 265 21.7
2017-Aug-16 21:23 264 22.2
2017-Aug-16 21:18 264 22.2
2017-Aug-16 21:13 264 22.8
2017-Aug-16 21:08 265 22.8
2017-Aug-16 21:03 265 23.3
2017-Aug-16 20:58 264 23.3
2017-Aug-16 20:53 265 23.9
2017-Aug-16 20:48 264 23.9
2017-Aug-16 20:43 264 23.9
2017-Aug-16 20:38 265 23.9
2017-Aug-16 20:33 264 23.9
2017-Aug-16 20:28 264 23.9
2017-Aug-16 20:23 264 23.9
2017-Aug-16 20:18 265 24.4
2017-Aug-16 20:13 265 24.4
2017-Aug-16 20:08 265 24.4
2017-Aug-16 20:03 265 24.4
2017-Aug-16 19:58 265 24.4
2017-Aug-16 19:53 265 0 gusting 5 24.4
2017-Aug-16 19:48 265 24.4
2017-Aug-16 19:43 265 0 gusting 5 24.4
2017-Aug-16 19:38 265 0 gusting 5 24.4
2017-Aug-16 19:33 265 1 gusting 6 25.0
2017-Aug-16 19:28 265 1 gusting 6 25.0
2017-Aug-16 19:23 265 0 gusting 5 25.0
2017-Aug-16 19:18 265 3 gusting 5 25.0
2017-Aug-16 19:13 264 3 gusting 6 25.0
2017-Aug-16 19:08 264 25.0
2017-Aug-16 19:03 264 1 gusting 5 25.6
2017-Aug-16 18:58 264 2 gusting 5 25.6
2017-Aug-16 18:53 264 0 gusting 6 25.6
2017-Aug-16 18:48 264 1 gusting 6 25.6
2017-Aug-16 18:43 263 0 gusting 6 25.6
2017-Aug-16 18:38 263 5 gusting 6 26.1
2017-Aug-16 18:33 263 3 gusting 6 26.1
2017-Aug-16 18:28 263 1 gusting 6 26.1
2017-Aug-16 18:23 263 1 gusting 8 26.1
2017-Aug-16 18:18 263 1 gusting 8 26.7
2017-Aug-16 18:13 264 2 gusting 8 26.7
2017-Aug-16 18:08 272 3 gusting 8 26.7
2017-Aug-16 18:03 273 2 gusting 8 26.7
2017-Aug-16 17:58 279 5 gusting 8 27.2
2017-Aug-16 17:53 274 2 gusting 9 27.2
2017-Aug-16 17:48 251 4 gusting 9 27.2
2017-Aug-16 17:43 275 1 gusting 8 27.8
2017-Aug-16 17:35 273 6 gusting 8 27.8
2017-Aug-16 17:30 272 2 gusting 10 28.3
2017-Aug-16 17:25 279 3 gusting 10 28.3
2017-Aug-16 17:20 250 3 gusting 10 28.3
2017-Aug-16 17:15 276 5 gusting 10 28.3
2017-Aug-16 17:10 259 5 gusting 7 28.3
2017-Aug-16 17:05 265 2 gusting 7 28.9
2017-Aug-16 17:00 256 7 gusting 10 28.9
2017-Aug-16 16:55 280 4 gusting 10 28.9
2017-Aug-16 16:50 282 4 gusting 12 28.9
2017-Aug-16 16:45 311 8 gusting 12 28.9
2017-Aug-16 16:40 242 3 gusting 8 29.4
2017-Aug-16 16:35 304 3 gusting 8 29.4
2017-Aug-16 16:30 342 6 gusting 11 29.4
2017-Aug-16 16:25 297 6 gusting 11 30.0
2017-Aug-16 16:20 269 4 gusting 10 30.0
2017-Aug-16 16:15 337 7 gusting 10 30.0
2017-Aug-16 16:10 280 4 gusting 11 30.0
2017-Aug-16 16:05 297 5 gusting 11 30.0
2017-Aug-16 16:00 263 6 gusting 12 30.6
2017-Aug-16 15:55 256 1 gusting 12 30.6
2017-Aug-16 15:50 259 5 gusting 12 30.6
2017-Aug-16 15:45 303 1 gusting 12 30.6
2017-Aug-16 15:40 323 4 gusting 11 30.6
2017-Aug-16 15:35 251 4 gusting 11 30.6
2017-Aug-16 15:30 300 5 gusting 11 30.6
2017-Aug-16 15:25 304 4 gusting 11 31.1
2017-Aug-16 15:20 285 4 gusting 12 31.1
2017-Aug-16 15:15 297 4 gusting 12 31.1
2017-Aug-16 15:10 295 5 gusting 11 31.1
2017-Aug-16 15:05 270 3 gusting 11 31.1
2017-Aug-16 15:00 300 3 gusting 10 31.1
2017-Aug-16 14:55 304 6 gusting 10 31.7
2017-Aug-16 14:50 269 2 gusting 12 31.7
2017-Aug-16 14:45 291 6 gusting 12 31.7
2017-Aug-16 14:40 292 4 gusting 11 31.7
2017-Aug-16 14:35 265 7 gusting 11 31.7
2017-Aug-16 14:30 278 5 gusting 11 31.7
2017-Aug-16 14:25 313 2 gusting 11 32.2
2017-Aug-16 14:20 308 6 gusting 13 32.2
2017-Aug-16 14:15 275 6 gusting 13 31.7
2017-Aug-16 14:10 309 7 gusting 11 32.2
2017-Aug-16 14:05 342 4 gusting 11 32.2
2017-Aug-16 14:00 296 6 gusting 12 32.2
2017-Aug-16 13:55 328 3 gusting 12 32.2
2017-Aug-16 13:50 320 5 gusting 13 32.2
2017-Aug-16 13:45 274 6 gusting 13 32.2
2017-Aug-16 13:40 269 7 gusting 12 32.2
2017-Aug-16 13:35 290 10 gusting 12 32.2
2017-Aug-16 13:30 262 6 gusting 9 32.2
2017-Aug-16 13:25 310 5 gusting 9 32.2
2017-Aug-16 13:20 302 6 gusting 10 32.2
2017-Aug-16 13:15 278 3 gusting 10 32.2
2017-Aug-16 13:10 269 0 gusting 12 32.2
2017-Aug-16 13:05 257 5 gusting 12 32.8
2017-Aug-16 13:00 342 6 gusting 10 32.2
2017-Aug-16 12:55 257 4 gusting 10 32.2
2017-Aug-16 12:50 280 5 gusting 11 32.2
2017-Aug-16 12:45 260 6 gusting 11 32.2
2017-Aug-16 12:40 240 8 gusting 12 32.2
2017-Aug-16 12:35 275 6 gusting 12 32.2
2017-Aug-16 12:30 253 3 gusting 10 32.2
2017-Aug-16 12:25 284 9 gusting 10 32.2
2017-Aug-16 12:20 272 2 gusting 9 32.2
2017-Aug-16 12:15 314 3 gusting 9 32.2
2017-Aug-16 12:10 326 3 gusting 9 32.2
2017-Aug-16 12:05 344 32.2
2017-Aug-16 12:00 285 6 gusting 10 31.7
2017-Aug-16 11:55 277 5 gusting 10 31.7
2017-Aug-16 11:50 308 6 gusting 10 31.7
2017-Aug-16 11:45 269 6 gusting 10 31.7
2017-Aug-16 11:40 277 4 gusting 7 31.7
2017-Aug-16 11:35 291 3 gusting 7 31.7
2017-Aug-16 11:30 280 0 gusting 8 31.7
2017-Aug-16 11:25 292 2 gusting 8 31.1
2017-Aug-16 11:20 304 1 gusting 8 31.1
2017-Aug-16 11:15 307 4 gusting 8 31.1
2017-Aug-16 11:10 286 4 gusting 8 31.1
2017-Aug-16 11:05 270 4 gusting 8 31.1
2017-Aug-16 11:00 267 4 gusting 6 30.6
2017-Aug-16 10:55 329 6 gusting 6 31.1
2017-Aug-16 10:50 282 5 gusting 7 30.6
2017-Aug-16 10:45 279 31.1
2017-Aug-16 10:40 279 0 gusting 7 31.1
2017-Aug-16 10:35 277 0 gusting 7 30.6
2017-Aug-16 10:30 254 1 gusting 6 30.6
2017-Aug-16 10:25 252 4 gusting 6 30.6
2017-Aug-16 10:20 244 4 gusting 6 30.6
2017-Aug-16 10:15 244 2 gusting 6 30.0
2017-Aug-16 10:10 244 5 gusting 6 30.0
2017-Aug-16 10:05 244 2 gusting 6 29.4
2017-Aug-16 10:00 244 1 gusting 5 29.4
2017-Aug-16 09:55 225 0 gusting 5 28.9
2017-Aug-16 09:50 224 1 gusting 6 28.9
2017-Aug-16 09:45 223 2 gusting 6 28.9
2017-Aug-16 09:40 219 1 gusting 3 28.9
2017-Aug-16 09:06 173 0 gusting 4 27.2
2017-Aug-16 09:04 173 1 gusting 4 27.2
2017-Aug-16 08:56 173 1 gusting 2 26.7
2017-Aug-16 08:50 170 26.7
2017-Aug-16 08:45 170 26.1
2017-Aug-16 08:36 170 2 gusting 4 26.1
2017-Aug-16 08:34 169 2 gusting 4 26.1
2017-Aug-16 08:29 169 3 gusting 4 26.1
2017-Aug-16 08:21 169 0 gusting 4 25.6
2017-Aug-16 08:16 169 25.0
2017-Aug-16 08:11 169 0 gusting 3 25.0
2017-Aug-16 08:06 169 1 gusting 3 25.0
2017-Aug-16 08:01 169 24.4
2017-Aug-16 07:56 169 0 gusting 3 23.9
2017-Aug-16 07:51 169 23.9
2017-Aug-16 07:46 169 23.3
2017-Aug-16 07:41 169 22.8
2017-Aug-16 07:36 169 1 gusting 3 22.2
2017-Aug-16 07:31 169 22.2
2017-Aug-16 07:26 169 2 22.2
2017-Aug-16 07:21 169 21.7
2017-Aug-16 07:16 169 21.7
2017-Aug-16 07:11 169 21.1
2017-Aug-16 07:06 169 21.1
2017-Aug-16 07:01 169 21.1
2017-Aug-16 06:56 169 21.1
2017-Aug-16 06:51 169 20.6
2017-Aug-16 06:46 169 20.6
2017-Aug-16 06:41 169 20.0
2017-Aug-16 06:36 169 20.0
2017-Aug-16 06:31 169 20.0
2017-Aug-16 06:26 169 20.0
2017-Aug-16 06:21 169 20.0
2017-Aug-16 06:16 169 19.4
2017-Aug-16 06:11 169 18.9
2017-Aug-16 06:06 169 18.9
2017-Aug-16 06:01 169 18.3
2017-Aug-16 05:56 169 17.8
2017-Aug-16 05:51 169 0 gusting 2 17.2
2017-Aug-16 05:46 169 1 gusting 2 17.2
2017-Aug-16 05:41 169 0 gusting 3 16.7
2017-Aug-16 05:36 169 0 gusting 3 16.7
2017-Aug-16 05:28 169 1 gusting 0 16.1
2017-Aug-16 05:23 169 16.1
2017-Aug-16 05:18 169 15.6
2017-Aug-16 05:13 169 15.6
2017-Aug-16 05:08 169 0 gusting 2 15.6
2017-Aug-16 05:03 169 1 gusting 3 15.6
2017-Aug-16 04:58 169 0 gusting 3 15.6
2017-Aug-16 04:53 169 15.6
2017-Aug-16 04:48 169 1 gusting 2 15.6
2017-Aug-16 04:43 169 0 gusting 4 16.1
2017-Aug-16 04:38 169 1 gusting 4 16.1
2017-Aug-16 04:33 169 0 gusting 4 16.1
2017-Aug-16 04:28 169 0 gusting 7 16.1
2017-Aug-16 04:23 169 2 gusting 7 16.1
2017-Aug-16 04:18 169 3 gusting 7 16.1
2017-Aug-16 04:13 169 5 gusting 6 16.1
2017-Aug-16 04:08 178 3 gusting 6 16.1
2017-Aug-16 04:03 188 6 gusting 5 16.1
2017-Aug-16 03:58 194 3 gusting 5 16.1
2017-Aug-16 03:53 200 4 gusting 5 16.1
2017-Aug-16 03:48 201 2 gusting 6 15.6
2017-Aug-16 03:43 201 3 gusting 6 15.6
2017-Aug-16 03:38 201 5 gusting 4 15.6
2017-Aug-16 03:33 201 3 gusting 4 15.6
2017-Aug-16 03:28 201 2 gusting 4 16.1
2017-Aug-16 03:23 202 3 gusting 4 16.1
2017-Aug-16 03:18 202 2 gusting 5 16.1
2017-Aug-16 03:13 202 2 gusting 5 16.1
2017-Aug-16 03:08 202 0 gusting 4 16.1
2017-Aug-16 03:03 202 1 gusting 4 16.1
2017-Aug-16 02:58 202 3 gusting 6 16.1
2017-Aug-16 02:53 202 3 gusting 6 16.1
2017-Aug-16 02:48 202 3 gusting 6 16.1
2017-Aug-16 02:43 205 3 gusting 6 16.1
2017-Aug-16 02:38 205 4 gusting 5 16.1
2017-Aug-16 02:33 205 4 gusting 5 16.1
2017-Aug-16 02:28 205 2 gusting 5 16.1
2017-Aug-16 02:23 205 3 gusting 5 16.1
2017-Aug-16 02:18 205 3 gusting 5 16.7
2017-Aug-16 02:13 205 2 gusting 5 16.7
2017-Aug-16 02:08 206 4 gusting 4 16.7
2017-Aug-16 02:03 206 16.7
2017-Aug-16 01:58 206 2 gusting 4 16.7
2017-Aug-16 01:53 206 16.7
2017-Aug-16 01:48 206 2 gusting 3 16.7
2017-Aug-16 01:43 206 2 gusting 5 16.7
2017-Aug-16 01:38 206 2 gusting 5 17.2
2017-Aug-16 01:33 206 3 gusting 5 17.2
2017-Aug-16 01:28 206 3 gusting 5 17.2
2017-Aug-16 01:23 206 4 gusting 6 17.2
2017-Aug-16 01:18 206 2 gusting 6 17.2
2017-Aug-16 01:13 207 3 gusting 6 17.2
2017-Aug-16 01:08 207 3 gusting 6 17.2
2017-Aug-16 01:03 207 4 gusting 6 17.2
2017-Aug-16 00:58 234 3 gusting 5 17.2
2017-Aug-16 00:53 234 17.2
2017-Aug-16 00:48 234 2 gusting 4 17.2
2017-Aug-16 00:43 234 3 gusting 4 17.2
2017-Aug-16 00:38 236 3 gusting 5 17.8
2017-Aug-16 00:33 236 4 gusting 4 17.8
2017-Aug-16 00:28 237 2 gusting 4 17.8
2017-Aug-16 00:23 238 4 gusting 3 18.3
2017-Aug-16 00:18 238 2 gusting 3 18.3
2017-Aug-16 00:13 238 2 gusting 3 18.3
2017-Aug-16 00:08 238 2 gusting 3 18.3
2017-Aug-16 00:03 238 2 gusting 3 18.3
2017-Aug-15 23:58 238 1 gusting 4 18.9
2017-Aug-15 23:53 238 0 gusting 4 18.9
2017-Aug-15 23:48 238 1 gusting 3 18.9
2017-Aug-15 23:43 238 3 gusting 3 18.9
2017-Aug-15 23:38 238 2 gusting 5 18.9
2017-Aug-15 23:33 239 2 gusting 5 18.9
2017-Aug-15 23:28 239 4 gusting 3 18.9
2017-Aug-15 23:23 244 2 gusting 3 18.9
2017-Aug-15 23:18 244 1 gusting 3 18.9
2017-Aug-15 23:13 244 1 gusting 4 18.9
2017-Aug-15 23:08 244 18.9
2017-Aug-15 23:03 244 1 gusting 4 18.9
2017-Aug-15 22:58 246 1 gusting 4 18.9
2017-Aug-15 22:53 248 2 19.4
2017-Aug-15 22:48 249 1 19.4
2017-Aug-15 22:43 265 19.4
2017-Aug-15 22:38 265 20.0
2017-Aug-15 22:33 265 20.0
2017-Aug-15 22:28 265 20.6
2017-Aug-15 22:23 265 2 gusting 4 21.1
2017-Aug-15 22:18 265 0 gusting 4 21.1
2017-Aug-15 22:13 265 1 gusting 4 21.7
2017-Aug-15 22:08 266 21.7
2017-Aug-15 22:01 266 2 22.8
2017-Aug-15 21:56 268 23.3
2017-Aug-15 21:51 268 23.3
2017-Aug-15 21:46 268 23.3
2017-Aug-15 21:41 268 23.3
2017-Aug-15 21:36 268 23.3
2017-Aug-15 21:31 268 0 gusting 6 23.9
2017-Aug-15 21:26 268 1 gusting 6 23.9
2017-Aug-15 21:21 268 3 gusting 3 23.9
2017-Aug-15 21:16 268 1 gusting 3 23.9
2017-Aug-15 21:11 269 1 gusting 6 23.9
2017-Aug-15 21:06 269 0 gusting 6 23.9
2017-Aug-15 21:01 269 2 gusting 6 23.9
2017-Aug-15 20:56 269 2 gusting 6 23.9
2017-Aug-15 20:51 269 5 gusting 5 23.9
2017-Aug-15 20:46 269 4 gusting 5 23.9
2017-Aug-15 20:41 270 0 gusting 4 24.4
2017-Aug-15 20:36 270 1 gusting 4 24.4
2017-Aug-15 20:31 270 4 gusting 6 24.4
2017-Aug-15 20:26 270 2 gusting 6 24.4
2017-Aug-15 20:21 270 1 gusting 6 24.4
2017-Aug-15 20:16 270 3 gusting 6 25.0
2017-Aug-15 20:11 273 1 gusting 4 25.0
2017-Aug-15 20:06 274 2 gusting 4 25.0
2017-Aug-15 20:01 274 3 gusting 2 25.0
2017-Aug-15 19:56 274 25.0
2017-Aug-15 19:51 274 25.6
2017-Aug-15 19:46 274 25.6
2017-Aug-15 19:41 274 25.6
2017-Aug-15 19:36 274 25.6
2017-Aug-15 19:31 274 25.6
2017-Aug-15 19:26 274 1 gusting 3 26.1
2017-Aug-15 19:21 274 26.1
2017-Aug-15 19:16 274 26.1
2017-Aug-15 19:11 274 0 gusting 6 26.1
2017-Aug-15 19:06 274 26.1
2017-Aug-15 19:01 275 2 gusting 5 26.7
2017-Aug-15 18:56 276 2 gusting 5 26.7
2017-Aug-15 18:51 276 0 gusting 6 26.7
2017-Aug-15 18:46 276 3 gusting 6 26.7
2017-Aug-15 18:41 276 3 gusting 6 27.2
2017-Aug-15 18:36 276 2 gusting 6 27.2
2017-Aug-15 18:31 277 2 gusting 5 27.8
2017-Aug-15 18:26 279 1 gusting 5 27.8
2017-Aug-15 18:21 280 4 gusting 4 27.8
2017-Aug-15 18:16 284 28.3
2017-Aug-15 18:11 284 1 gusting 6 28.3
2017-Aug-15 18:06 285 2 gusting 6 28.3
2017-Aug-15 18:01 286 2 gusting 6 28.9
2017-Aug-15 17:56 281 1 gusting 6 28.9
2017-Aug-15 17:51 285 1 gusting 9 28.9
2017-Aug-15 17:46 285 5 gusting 9 28.9
2017-Aug-15 17:41 278 1 gusting 7 29.4
2017-Aug-15 17:36 286 2 gusting 7 29.4
2017-Aug-15 17:31 264 2 gusting 8 29.4
2017-Aug-15 17:26 276 4 gusting 8 30.0
2017-Aug-15 17:21 280 6 gusting 7 30.0
2017-Aug-15 17:16 297 3 gusting 7 30.0
2017-Aug-15 17:11 299 2 gusting 10 30.6
2017-Aug-15 17:06 283 2 gusting 10 30.6
2017-Aug-15 17:01 278 4 gusting 9 30.6
2017-Aug-15 16:56 288 2 gusting 9 30.6
2017-Aug-15 16:51 288 3 gusting 10 30.6
2017-Aug-15 16:46 285 4 gusting 10 30.6
2017-Aug-15 16:41 262 3 gusting 12 30.6
2017-Aug-15 16:36 275 2 gusting 12 30.6
2017-Aug-15 16:31 291 6 gusting 9 31.1
2017-Aug-15 16:26 267 6 gusting 9 31.1
2017-Aug-15 16:21 287 3 gusting 11 31.1
2017-Aug-15 16:16 300 3 gusting 11 31.1
2017-Aug-15 16:11 268 2 gusting 10 31.1
2017-Aug-15 16:06 264 5 gusting 10 31.1
2017-Aug-15 15:51 279 5 gusting 13 31.7
2017-Aug-15 15:41 263 8 gusting 13 31.7
2017-Aug-15 15:10 263 3 gusting 12 32.2